Regional Weather Roundup
Issued by NWS

Home | Current Version | Previous Version | Graphics & Text | Print | Product List | Glossary On
Versions: 1 2 3 4 5 6 7 8 9 10 11 12 13 14 15 16 17 18 19 20 21 22 23 24 25 26 27 28 29 30 31 32 33 34 35 36 37 38 39 40 41 42 43 44 45 46 47 48 49 50
000
ASUS43 KOAX 260410
RWRNE

WEATHER ROUNDUP FOR NEBRASKA
NATIONAL WEATHER SERVICE OMAHA NE
1000 PM CST SAT FEB 25 2017

NOTES: SATELLITE DATA IS BEING USED TO AUGMENT CLOUD COVER ABOVE
       12000 FEET.
       "FAIR" INDICATES FEW OR NO CLOUDS BELOW 12,000 FEET WITH NO
       SIGNIFICANT WEATHER AND/OR OBSTRUCTIONS TO VISIBILITY.

  * THESE STATIONS DO NOT REPORT WEATHER SUCH AS RAIN...SNOW OR FOG.

NEZ001>004-019>022-054>056-260500-
NEBRASKA PANHANDLE

CITY           SKY/WX    TMP DP  RH WIND       PRES   REMARKS
SCOTTSBLUFF    CLEAR     24  10  55 W15       29.78R WCI  11
ALLIANCE       CLEAR     16   8  71 W8        29.75S WCI   5
CHADRON        CLEAR     12   3  67 W3        29.75R
KIMBALL        CLOUDY    15   7  72 W10       29.78S WCI   2
SIDNEY         CLOUDY    22  10  60 W12       29.81R WCI  10
$$

NEZ057>060-069>072-079>082-260500-
SOUTHWEST NEBRASKA

CITY           SKY/WX    TMP DP  RH WIND       PRES   REMARKS
NORTH PLATTE   CLOUDY    23  16  74 S3        29.84F
IMPERIAL       CLOUDY    30  16  56 S7        29.85F WCI  23
LEXINGTON      CLOUDY    26  19  73 W5        29.87F WCI  21
MCCOOK         CLOUDY    27  14  58 W7        29.89R WCI  19
OGALLALA       PTCLDY    21  16  81 SW5       29.83S WCI  15
$$

NEZ005>010-023>029-035>040-094-260500-
NORTH CENTRAL NEBRASKA

CITY           SKY/WX    TMP DP  RH WIND       PRES   REMARKS
VALENTINE      MOCLDY    14   9  80 SW8       29.77S WCI   3
AINSWORTH      CLEAR     19  15  84 SW9       29.78R WCI   8
BROKEN BOW     CLEAR     22  17  81 W9        29.83S WCI  12
O`NEILL        CLOUDY    24  19  79 SW6       29.80F WCI  17
ORD            CLEAR     24  16  71 SW8       29.83S WCI  15
THEDFORD       CLOUDY    19  11  74 SW6       29.80S WCI  10
$$

NEZ041-046>049-061>064-073>077-083>087-260500-
SOUTH CENTRAL NEBRASKA

CITY           SKY/WX    TMP DP  RH WIND       PRES   REMARKS
GRAND ISLAND   CLOUDY    28  22  78 W8        29.88S WCI  20
AURORA         CLEAR     26  22  85 W7        29.88S WCI  18
HASTINGS       CLEAR     28  21  75 W3        29.89S
HEBRON         CLEAR     32  26  79 CALM      29.92S
HOLDREGE       MOCLDY    30  16  56 W10       29.88S WCI  21
KEARNEY *      CLOUDY    28  21  74 SW6       29.89R WCI  22
YORK           CLEAR     28  25  86 SW8       29.89S WCI  20
$$

NEZ011>018-030>034-042>045-260500-
NORTHEAST NEBRASKA

CITY           SKY/WX    TMP DP  RH WIND       PRES   REMARKS
NORFOLK        CLOUDY    22  18  85 CALM      29.84S
ALBION         CLOUDY    29  20  69 CALM      29.84F
BLAIR          PTCLDY    30  21  70 S13       29.88F WCI  20
FREMONT        CLOUDY    32  23  69 S6        29.88F WCI  26
TEKAMAH        CLOUDY    22  17  81 S5        29.89F WCI  16
WAYNE          CLOUDY    23  20  87 SW7       29.84F WCI  15
$$

NEZ050>053-065>068-078-088>093-260500-
SOUTHEAST NEBRASKA

CITY           SKY/WX    TMP DP  RH WIND       PRES   REMARKS
LINCOLN        CLEAR     33  26  75 S7        29.91F WCI  27
OMAHA EPPLEY   PTCLDY    31  21  66 S12       29.91F WCI  22
BEATRICE       PTCLDY    33  22  64 S7        29.92F WCI  26
FALLS CITY     CLOUDY    36  17  46 S10       29.97R WCI  28
NEBRASKA CITY  CLOUDY    34  18  53 S12       29.94S WCI  25
PLATTSMOUTH    PTCLDY    32  19  57 S10       29.91F WCI  24
$$

NEZ044-045-051>053-067-260500-
OMAHA AREA

CITY           SKY/WX    TMP DP  RH WIND       PRES   REMARKS
OMAHA EPPLEY   PTCLDY    31  21  66 S12       29.91F WCI  22
BLAIR          PTCLDY    30  21  70 S13       29.88F WCI  20
FREMONT        CLOUDY    32  23  69 S6        29.88F WCI  26
MILLARD        PTCLDY    34  23  64 S5        29.90F WCI  30
OFFUTT AFB     CLOUDY    29  21  70 SE5       29.91F WCI  24
PLATTSMOUTH    PTCLDY    32  19  57 S10       29.91F WCI  24
WAHOO          FAIR      27  21  79 S6        29.89S WCI  20
$$



USA.gov is the U.S. government's official web portal to all federal, state and local government web resources and services.